Plattsburgh, NY

8:29 AM EDT on August 30, 2016 (GMT -0400)
Plattsburgh International

Weather History for KPBG - November, 2011

Change the Weather History Date:

Saturday, November 26, 2011

  Actual Average Record
Temperature  
Mean Temperature 41 °F 32 °F  
Max Temperature 51 °F 41 °F 60 °F (1979)
Min Temperature 31 °F 24 °F 6 °F (1993)
Degree Days  
Heating Degree Days 24 33  
Month to date heating degree days 627 716  
Since 1 July heating degree days 1234 1499  
Cooling Degree Days 0 0  
Month to date cooling degree days 0  
Year to date cooling degree days 346  
Moisture  
Dew Point 35 °F    
Average Humidity 80    
Maximum Humidity 100    
Minimum Humidity 60    
Precipitation  
Precipitation 0.00 in - 1.42 in (1950)
Month to date precipitation 1.57  
Year to date precipitation 37.60  
Sea Level Pressure  
Sea Level Pressure 30.12 in    
Wind  
Wind Speed 2 mph (WSW)    
Max Wind Speed 7 mph    
Max Gust Speed 9 mph    
Visibility 7 miles    
Events      
T = Trace of Precipitation, MM = Missing Value Source: NWS Daily Summary

Daily Weather History Graph

Daily Weather History Graph

Search for Another Location

Airport or City:

Trip Planner

Search our weather history database for the weather conditions in past years. The results will help you decide how hot, cold, wet, or windy it might be!

Date:

Astronomy

Nov. 26, 2011 Rise Set
Actual Time 7:04 AM EST 4:17 PM EST
Civil Twilight 6:31 AM EST 4:49 PM EST
Nautical Twilight 5:55 AM EST 5:26 PM EST
Astronomical Twilight 5:20 AM EST 6:00 PM EST
Moon 8:35 AM EST (11/26) 5:43 PM EST (11/26)
Length of Visible Light 10h 17m
Length of Day
9h 13m
Waxing Crescent, 3% of the Moon is Illuminated
Nov 26
Waxing Crescent
Dec 2
First Quarter
Dec 10
Full
Dec 17
Last Quarter
Dec 24
New

Hourly Weather History & Observations

Time (EST) Temp. Windchill Dew Point Humidity Pressure Visibility Wind Dir Wind Speed Gust Speed Precip Events Conditions
12:53 AM 45.0 °F - 37.9 °F 76% 30.01 in 10.0 mi Calm Calm - N/A   Clear
1:53 AM 39.0 °F 35.7 °F 35.1 °F 86% 30.02 in 10.0 mi SSW 4.6 mph - N/A   Clear
2:53 AM 45.0 °F 42.6 °F 34.0 °F 65% 30.03 in 10.0 mi SW 4.6 mph - N/A   Clear
3:53 AM 45.0 °F - 33.1 °F 63% 30.04 in 10.0 mi Calm Calm - N/A   Mostly Cloudy
4:53 AM 46.9 °F - 34.0 °F 61% 30.05 in 10.0 mi Calm Calm - N/A   Mostly Cloudy
5:53 AM 42.1 °F - 35.1 °F 76% 30.06 in 10.0 mi Calm Calm - N/A   Mostly Cloudy
7:53 AM 43.0 °F 41.3 °F 34.0 °F 71% 30.13 in 10.0 mi NW 3.5 mph - N/A   Overcast
8:53 AM 39.9 °F - 35.1 °F 83% 30.14 in 10.0 mi Calm Calm - N/A   Overcast
10:53 AM 48.0 °F - 39.0 °F 71% 30.13 in 10.0 mi Calm Calm - N/A   Partly Cloudy
11:53 AM 48.0 °F - 39.0 °F 71% 30.14 in 10.0 mi SSE 3.5 mph - N/A   Clear
12:53 PM 48.9 °F - 39.9 °F 71% 30.13 in 10.0 mi Calm Calm - N/A   Clear
1:53 PM 48.0 °F - 39.0 °F 71% 30.12 in 10.0 mi SE 3.5 mph - N/A   Clear
2:53 PM 46.9 °F - 39.9 °F 77% 30.13 in 10.0 mi Calm Calm - N/A   Clear
3:53 PM 46.0 °F 43.1 °F 39.9 °F 79% 30.14 in 10.0 mi NNW 5.8 mph - N/A   Partly Cloudy
4:53 PM 44.1 °F 41.5 °F 39.0 °F 82% 30.14 in 10.0 mi NNW 4.6 mph - N/A   Clear
5:53 PM 43.0 °F - 39.0 °F 86% 30.16 in 10.0 mi Calm Calm - N/A   Clear
6:53 PM 39.9 °F - 37.0 °F 89% 30.17 in 10.0 mi Calm Calm - N/A   Clear
7:53 PM 39.9 °F - 37.9 °F 93% 30.16 in 8.0 mi Calm Calm - N/A   Clear
8:53 PM 34.0 °F - 33.1 °F 96% 30.17 in 5.0 mi Calm Calm - N/A   Clear
9:46 PM 33.8 °F - 32.0 °F 93% 30.14 in 1.5 mi Calm Calm - N/A   Clear
9:49 PM 33.8 °F - 32.0 °F 93% 30.14 in 1.0 mi Calm Calm - N/A   Mist
9:53 PM 32.0 °F - 30.9 °F 96% 30.14 in 0.8 mi Calm Calm - N/A   Mist
9:59 PM 32.0 °F - 30.2 °F 93% 30.13 in 1.2 mi Calm Calm - N/A   Partly Cloudy
10:05 PM 32.0 °F - 32.0 °F 100% 30.13 in 3.0 mi Calm Calm - N/A   Partly Cloudy
10:17 PM 32.0 °F - 30.2 °F 93% 30.13 in 2.5 mi Calm Calm - N/A   Partly Cloudy
10:24 PM 33.8 °F - 30.2 °F 87% 30.13 in 6.0 mi Calm Calm - N/A   Clear
10:53 PM 32.0 °F - 30.9 °F 96% 30.15 in 4.0 mi Calm Calm - N/A   Clear
11:53 PM 32.0 °F - 30.0 °F 92% 30.13 in 2.0 mi Calm Calm - N/A   Clear